Terug naar catalogus

STARLINK-36307

ActiefCommunicatieSSO
NORAD 68306·PAYLOAD·🇺🇸 United States

Gelanceerd Mar 20, 2026 vanaf Vandenberg Space Force Base

Loading…

Volgende Passages (komende 24 uur)

TLE

VersSource: CelesTrak SupGP

Epoch: Sep 14, 2026, 20:57 UTC

1 68306C 26057N   26257.87340278 -.00088761  00000+0 -27555-2 0  2578
2 68306  97.2859  23.3392 0001171 105.3966 139.5272 15.33483091    14

Volg STARLINK-36307 in realtime met AllMySat

Download on the App Store